Weather History for KCLK - November, 2012

Change the Weather History Date:

Sunday, November 18, 2012

  Actual Average (KCSM) Record (KCSM)
Temperature  
Mean Temperature 55 °F -  
Max Temperature 66 °F 56 °F 78 °F (1999)
Min Temperature 44 °F 37 °F 24 °F (2014)
Degree Days  
Heating Degree Days 10    
Growing Degree Days 5 (Base 50)    
Moisture  
Dew Point 33 °F    
Average Humidity 45    
Maximum Humidity 58    
Minimum Humidity 28    
Precipitation  
Precipitation 0.00 in - - ()
Sea Level Pressure  
Sea Level Pressure 30.13 in    
Wind  
Wind Speed 14 mph (SSE)    
Max Wind Speed 26 mph    
Max Gust Speed 33 mph    
Visibility 10 miles    
Events      
Averages and records for this station are not official NWS values.
T = Trace of Precipitation, MM = Missing Value Source: NWS Daily Summary

Daily Weather History Graph

Daily Weather History Graph

Search for Another Location

Airport or City:

Trip Planner

Search our weather history database for the weather conditions in past years. The results will help you decide how hot, cold, wet, or windy it might be!

Date:

Astronomy

Nov. 18, 2012 Rise Set
Actual Time 7:14 AM CST 5:26 PM CST
Civil Twilight 6:47 AM CST 5:54 PM CST
Nautical Twilight 6:16 AM CST 6:25 PM CST
Astronomical Twilight 5:46 AM CST 6:55 PM CST
Moon 11:44 AM CST (11/18) 10:45 PM CST (11/18)
Length of Visible Light 11h 06m
Length of Day
10h 12m
Waxing Crescent, 30% of the Moon is Illuminated
Nov 18
Waxing Crescent
Nov 20
First Quarter
Nov 28
Full
Dec 6
Last Quarter
Dec 13
New

Hourly Weather History & Observations

Time (CST) Temp. Windchill Dew Point Humidity Pressure Visibility Wind Dir Wind Speed Gust Speed Precip Events Conditions
12:15 AM 46.4 °F 41.5 °F 28.4 °F 50% 30.20 in 10.0 mi SSE 10.4 mph - N/A   Clear
12:35 AM 44.6 °F 39.2 °F 28.4 °F 53% 30.20 in 10.0 mi SSE 10.4 mph - N/A   Clear
12:55 AM 44.6 °F 39.2 °F 28.4 °F 53% 30.20 in 10.0 mi SSE 10.4 mph - N/A   Clear
1:15 AM 44.6 °F 39.2 °F 28.4 °F 53% 30.19 in 10.0 mi SSE 10.4 mph - N/A   Clear
1:35 AM 44.6 °F 39.2 °F 28.4 °F 53% 30.19 in 10.0 mi SSE 10.4 mph - N/A   Clear
1:55 AM 46.4 °F 41.5 °F 28.4 °F 50% 30.18 in 10.0 mi SSE 10.4 mph - N/A   Clear
2:15 AM 44.6 °F 39.2 °F 28.4 °F 53% 30.18 in 10.0 mi SSE 10.4 mph - N/A   Clear
2:35 AM 44.6 °F 38.8 °F 28.4 °F 53% 30.18 in 10.0 mi SSE 11.5 mph - N/A   Clear
2:55 AM 44.6 °F 38.8 °F 28.4 °F 53% 30.18 in 10.0 mi SSE 11.5 mph - N/A   Clear
3:15 AM 44.6 °F 38.4 °F 28.4 °F 53% 30.17 in 10.0 mi SSE 12.7 mph - N/A   Clear
3:35 AM 44.6 °F 38.8 °F 28.4 °F 53% 30.17 in 10.0 mi SSE 11.5 mph - N/A   Clear
3:55 AM 46.4 °F 40.7 °F 28.4 °F 50% 30.16 in 10.0 mi SSE 12.7 mph - N/A   Clear
4:15 AM 46.4 °F 40.7 °F 30.2 °F 53% 30.15 in 10.0 mi SSE 12.7 mph - N/A   Clear
4:35 AM 46.4 °F 40.7 °F 28.4 °F 50% 30.15 in 10.0 mi SSE 12.7 mph - N/A   Clear
5:15 AM 46.4 °F 41.1 °F 30.2 °F 53% 30.15 in 10.0 mi SSE 11.5 mph - N/A   Clear
5:35 AM 46.4 °F 41.1 °F 30.2 °F 53% 30.15 in 10.0 mi SSE 11.5 mph - N/A   Clear
5:55 AM 46.4 °F 41.5 °F 30.2 °F 53% 30.16 in 10.0 mi SSE 10.4 mph - N/A   Clear
6:15 AM 46.4 °F 40.7 °F 30.2 °F 53% 30.17 in 10.0 mi SSE 12.7 mph - N/A   Mostly Cloudy
6:35 AM 46.4 °F 41.5 °F 30.2 °F 53% 30.16 in 10.0 mi SSE 10.4 mph - N/A   Mostly Cloudy
6:55 AM 44.6 °F 39.7 °F 30.2 °F 57% 30.16 in 10.0 mi SSE 9.2 mph - N/A   Scattered Clouds
7:15 AM 44.6 °F 39.2 °F 30.2 °F 57% 30.16 in 10.0 mi SSE 10.4 mph - N/A   Clear
7:35 AM 46.4 °F 41.1 °F 30.2 °F 53% 30.16 in 10.0 mi SSE 11.5 mph - N/A   Clear
7:55 AM 46.4 °F 41.1 °F 30.2 °F 53% 30.17 in 10.0 mi SSE 11.5 mph - N/A   Clear
8:15 AM 46.4 °F 42.4 °F 32.0 °F 57% 30.17 in 10.0 mi South 8.1 mph - N/A   Clear
8:35 AM 50.0 °F - 30.2 °F 47% 30.17 in 10.0 mi South 13.8 mph 17.3 mph N/A   Clear
8:55 AM 50.0 °F - 32.0 °F 50% 30.17 in 10.0 mi South 13.8 mph - N/A   Clear
9:15 AM 51.8 °F - 30.2 °F 44% 30.17 in 10.0 mi SSE 15.0 mph - N/A   Clear
9:35 AM 51.8 °F - 30.2 °F 44% 30.16 in 10.0 mi South 16.1 mph - N/A   Clear
9:55 AM 53.6 °F - 30.2 °F 41% 30.16 in 10.0 mi South 17.3 mph 23.0 mph N/A   Clear
10:15 AM 55.4 °F - 30.2 °F 38% 30.15 in 10.0 mi South 21.9 mph 31.1 mph N/A   Clear
10:35 AM 59.0 °F - 30.2 °F 34% 30.16 in 10.0 mi South 20.7 mph 26.5 mph N/A   Clear
10:55 AM 59.0 °F - 30.2 °F 34% 30.15 in 10.0 mi South 21.9 mph 28.8 mph N/A   Clear
11:15 AM 60.8 °F - 30.2 °F 31% 30.14 in 10.0 mi South 24.2 mph 31.1 mph N/A   Clear
11:35 AM 62.6 °F - 30.2 °F 30% 30.13 in 10.0 mi South 24.2 mph 31.1 mph N/A   Clear
12:15 PM 64.4 °F - 32.0 °F 30% 30.11 in 10.0 mi South 21.9 mph 33.4 mph N/A   Clear
12:35 PM 64.4 °F - 32.0 °F 30% 30.10 in 10.0 mi South 26.5 mph 32.2 mph N/A   Clear
1:15 PM 66.2 °F - 32.0 °F 28% 30.07 in 10.0 mi South 24.2 mph 31.1 mph N/A   Clear
1:35 PM 64.4 °F - 33.8 °F 32% 30.07 in 10.0 mi South 21.9 mph 29.9 mph N/A   Clear
1:55 PM 66.2 °F - 35.6 °F 32% 30.05 in 10.0 mi South 20.7 mph 28.8 mph N/A   Clear
2:15 PM 66.2 °F - 35.6 °F 32% 30.06 in 10.0 mi South 24.2 mph - N/A   Clear
2:55 PM 66.2 °F - 37.4 °F 35% 30.06 in 10.0 mi South 25.3 mph 33.4 mph N/A   Clear
3:15 PM 66.2 °F - 37.4 °F 35% 30.05 in 10.0 mi South 20.7 mph 26.5 mph N/A   Clear
3:35 PM 66.2 °F - 37.4 °F 35% 30.06 in 10.0 mi South 23.0 mph 27.6 mph N/A   Clear
3:55 PM 66.2 °F - 37.4 °F 35% 30.06 in 10.0 mi SSW 24.2 mph 32.2 mph N/A   Clear
4:15 PM 66.2 °F - 37.4 °F 35% 30.07 in 10.0 mi South 25.3 mph 31.1 mph N/A   Clear
4:35 PM 66.2 °F - 37.4 °F 35% 30.07 in 10.0 mi South 21.9 mph 27.6 mph N/A   Clear
4:55 PM 64.4 °F - 39.2 °F 40% 30.07 in 10.0 mi South 17.3 mph 27.6 mph N/A   Clear
5:15 PM 64.4 °F - 37.4 °F 37% 30.07 in 10.0 mi South 15.0 mph - N/A   Clear
5:35 PM 62.6 °F - 39.2 °F 42% 30.07 in 10.0 mi South 15.0 mph - N/A   Clear
5:55 PM 62.6 °F - 39.2 °F 42% 30.08 in 10.0 mi South 13.8 mph - N/A   Clear
6:15 PM 62.6 °F - 39.2 °F 42% 30.08 in 10.0 mi SSE 12.7 mph - N/A   Clear
6:35 PM 62.6 °F - 37.4 °F 39% 30.09 in 10.0 mi SSE 15.0 mph - N/A   Clear
6:55 PM 60.8 °F - 37.4 °F 42% 30.09 in 10.0 mi SSE 18.4 mph 24.2 mph N/A   Clear
7:15 PM 60.8 °F - 35.6 °F 39% 30.09 in 10.0 mi SSE 12.7 mph - N/A   Clear
7:35 PM 60.8 °F - 35.6 °F 39% 30.10 in 10.0 mi SSE 11.5 mph - N/A   Clear
8:15 PM 59.0 °F - 33.8 °F 39% 30.09 in 10.0 mi SSE 15.0 mph - N/A   Scattered Clouds
8:35 PM 59.0 °F - 33.8 °F 39% 30.10 in 10.0 mi SSE 12.7 mph - N/A   Scattered Clouds
8:55 PM 59.0 °F - 35.6 °F 42% 30.10 in 10.0 mi SSE 12.7 mph - N/A   Scattered Clouds
9:15 PM 59.0 °F - 37.4 °F 45% 30.11 in 10.0 mi SSE 12.7 mph - N/A   Scattered Clouds
9:35 PM 59.0 °F - 41.0 °F 51% 30.10 in 10.0 mi South 11.5 mph - N/A   Scattered Clouds
9:55 PM 59.0 °F - 42.8 °F 55% 30.10 in 10.0 mi South 12.7 mph - N/A   Clear
10:15 PM 57.2 °F - 41.0 °F 55% 30.10 in 10.0 mi SSE 13.8 mph 19.6 mph N/A   Clear
10:35 PM 55.4 °F - 41.0 °F 58% 30.11 in 10.0 mi SSE 9.2 mph - N/A   Clear
10:55 PM 55.4 °F - 41.0 °F 58% 30.11 in 10.0 mi SSE 9.2 mph - N/A   Clear
11:15 PM 53.6 °F - 39.2 °F 58% 30.11 in 10.0 mi SSE 11.5 mph - N/A   Clear
11:35 PM 53.6 °F - 37.4 °F 54% 30.11 in 10.0 mi SSE 10.4 mph - N/A   Clear
11:55 PM 51.8 °F - 37.4 °F 58% 30.10 in 10.0 mi SSE 12.7 mph - N/A   Clear